Regional Weather Roundup
Issued by NWS Charleston, SC

Current Version | Previous Version | Graphics & Text | Print | Product List | Glossary On
Versions: 1 2 3 4 5 6 7 8 9 10 11 12 13 14 15 16 17 18 19 20 21 22 23 24 25 26 27 28 29 30 31 32 33 34 35 36 37 38 39 40 41 42 43 44 45 46 47 48 49 50
000
ASUS42 KCHS 260613
RWRCHS

REGIONAL WEATHER ROUNDUP
NATIONAL WEATHER SERVICE CHARLESTON SC
200 AM EDT TUE JUL 26 2016

NOTE: "FAIR" INDICATES FEW OR NO CLOUDS BELOW 12,000 FEET WITH NO
SIGNIFICANT WEATHER AND/OR OBSTRUCTIONS TO VISIBILITY.

NOT ALL STATIONS ARE QUALITY CONTROLLED. USE DATA WITH CAUTION...
ESPECIALLY DEWPOINT OBSERVATIONS.

SCZ027-030-031-034>040-042>050-260700-
...SOUTHEAST SOUTH CAROLINA...

CITY           SKY/WX    TMP DP  RH WIND       PRES   REMARKS
N CHARLESTON   CLEAR     78  72  81 S5        30.06F
6HR MIN TEMP:  78; 6HR MAX TEMP:  85;

WATERFRONT PRK   N/A     82  75  79 VRB2      30.04S
MOUNT PLEASANT FAIR      75  73  94 CALM      30.06F
JOHNS ISLAND   FAIR      81  73  78 CALM      30.07S
PINOPOLIS        N/A     79  73  83 SW6       29.99F
MONCKS CORNER  FAIR      72  70  94 CALM      30.05F
SUMMERVILLE    FAIR      73  73 100 CALM      30.07F
BEAUFORT MCAS  CLEAR     78  72  81 SW3       30.06F
6HR MIN TEMP:  78; 6HR MAX TEMP:  86;

BEAUFORT ARPT  FAIR      81  73  78 SW3       30.06S
HILTON HEAD IS CLEAR     82  75  78 SW6       30.07F
WALTERBORO     PTCLDY    77  77 100 CALM      30.07F
ALLENDALE      FAIR      77  72  83 CALM      30.05F

...SOUTHERN MIDLANDS AND PEE DEE...

CITY           SKY/WX    TMP DP  RH WIND       PRES   REMARKS
GEORGETOWN     FAIR      73  72  94 SW5       30.07S
KINGSTREE      FAIR      73  70  88 CALM      30.05F
ORANGEBURG     CLEAR     76  72  87 SW3       30.06F
6HR MIN TEMP:  76; 6HR MAX TEMP:  89;

BARNWELL       NOT AVBL
AIKEN          FAIR      77  70  78 S8        30.09S
MANNING        FAIR      79  72  78 SW3       30.05F
COLUMBIA       CLEAR     81  70  69 SW9       30.04F
6HR MIN TEMP:  81; 6HR MAX TEMP:  93;

SUMTER         CLEAR     79  72  79 S12       30.02F
6HR MIN TEMP:  79; 6HR MAX TEMP:  89;

FLORENCE       CLEAR     79  73  82 SW6       30.04F
6HR MIN TEMP:  79; 6HR MAX TEMP:  89;

MYRTLE BEACH   CLEAR     81  68  65 SW5       30.07S
N MYRTLE BEACH CLEAR     81  73  76 W7        30.05S
6HR MIN TEMP:  78; 6HR MAX TEMP:  84;


$$

GAZ063-065-086>088-099>101-113>116-118-119-134>141-150-260700-
...SOUTHEAST GEORGIA...

CITY           SKY/WX    TMP DP  RH WIND       PRES   REMARKS
SAVANNAH ARPT  CLEAR     78  72  81 SW3       30.07S
6HR MIN TEMP:  78; 6HR MAX TEMP:  86;

HUNTER AAF     CLEAR     78  76  92 CALM      30.04F
6HR MIN TEMP:  77; 6HR MAX TEMP:  85;

FORT STEWART   CLEAR     75  72  88 CALM      30.05S
6HR MIN TEMP:  75; 6HR MAX TEMP:  85;

STATESBORO     PTCLDY    78  74  87 CALM      30.06S
SYLVANIA       NOT AVBL
CLAXTON        FAIR      75  73  93 CALM      30.06S

...CSRA...CENTRAL AND FAR SOUTHEAST GEORGIA...

CITY           SKY/WX    TMP DP  RH WIND       PRES   REMARKS
THOMSON        NOT AVBL
AUGUSTA-BUSH   CLEAR     79  70  74 S7        30.04F
6HR MIN TEMP:  79; 6HR MAX TEMP:  91;

AUGUSTA-DANIEL CLEAR     81  69  67 S7        30.06F
SWAINSBORO     FAIR      77  72  83 S5        30.06F
VIDALIA        CLEAR     77  72  83 CALM      30.07S
EASTMAN        FAIR      77  63  61 CALM      30.08S
HAZLEHURST     FAIR      80  75  85 CALM      30.06S
ALMA           CLEAR     77  72  84 S5        30.07S
6HR MIN TEMP:  77; 6HR MAX TEMP:  90;

WAYCROSS       CLEAR     80  76  89 CALM      30.07S
JESUP          FAIR      75  75 100 CALM      30.07S
BAXLEY         FAIR      77  77 100 CALM      30.06S
BRUNSWICK      CLEAR     79  77  94 S5        30.08S
SAINT SIMONS   CLEAR     82  74  76 SW8       30.07S
6HR MIN TEMP:  82; 6HR MAX TEMP:  85;


$$

SCZ027-028-034-036>038-045-046-048>050-GAZ119-141-260700-
...LAKE AND SUPPLEMENTAL COASTAL OBSERVATIONS...

STATION/POSITION TIME  TEMP    WIND        PRES    WAVE   SWELL
                       AIR SEA DIR/SP/G            HT/PER HT/PER/DIR
                 (UTC) (F)     (DEG/KT/KT) (MB)    (FT/S) (FT/S/D)
WINYAH BAY       0445   80     230/  4     1017.0
LAKE MURRAY      NOT AVBL
ACE BASIN NERRS  NOT AVBL
FORT PULASKI     0500   84 87  200/  8/ 13 1018.5S
SAPELO ISLAND    0500   83     210/  9     1018.0S

$$

ANZ835-935-AMZ111-154-330-350-352-354-370-450-454-472-260700-
...C-MAN AND BUOY OBSERVATIONS...

STATION/POSITION TIME  TEMP    WIND        PRES    WAVE   SWELL
                       AIR SEA DIR/SP/G            HT/PER HT/PER/DIR
                 (UTC) (F)     (DEG/KT/KT) (MB)    (FT/S) (FT/S/D)
BUOY 41004       0550   84 86  210/ 14/ 16 1017.5F   2/ 9   2/180/ 9
BUOY 41008       0550   85 86  190/ 14/ 16 1017.8R   2/ 4   2/ 90/ 9
FOLLY BEACH CMAN 0500   84     210/ 15/ 16 1018.2F
CAPERS NEARSHORE 0508   84 84  230/ 14/ 17 1017.9S
FRIPP NEARSHORE  0508   85 87  210/ 14/ 17 1017.5F


STATION/POSITION TIME  TEMP    WIND        PRES    WAVE   SWELL
                       AIR SEA DIR/SP/G            HT/PER HT/PER/DIR
                 (UTC) (F)     (DEG/KT/KT) (MB)    (FT/S) (FT/S/D)
5E ST. MARYS GA  0601      86                N/A     3/ 4
FRYING PAN BUOY  0500   85 86  230/ 14/ 17 1017.5F
BUOY 41025       0550   84 85  230/ 19/ 23 1016.0F   5/ 5
CAPE LOOKOUT NC  0500   83     230/ 11/ 16 1017.0F
BUOY 41002       0550   82 84  210/ 10/ 10 1019.2F   2/ 8   2/130/ 8
BUOY 41010       0520   85 86  170/ 10/ 12 1018.6S
ST AUGUSTINE FL  0600   79 85  260/  3/  3 1019.2F


$$



USA.gov is the U.S. government's official web portal to all federal, state and local government web resources and services.